Regional Weather Roundup
Issued by NWS

Home | Current Version | Previous Version | Text Only | Print | Product List | Glossary On
Versions: 1 2 3 4 5 6 7 8 9 10 11 12 13 14 15 16 17 18 19 20 21 22 23 24 25 26 27 28 29 30 31 32 33 34 35 36 37 38 39 40 41 42 43 44 45 46 47 48 49 50
000
ASUS43 KLMK 250410
RWRKY
KENTUCKY REGIONAL WEATHER ROUNDUP
NATIONAL WEATHER SERVICE LOUISVILLE KY
1200 AM EDT TUE APR 25 2017

NOTE "FAIR" INDICATES FEW OR NO CLOUDS BELOW 12,000 FEET
WITH NO SIGNIFICANT WEATHER AND/OR OBSTRUCTIONS TO VISIBILITY.

KYZ001>023-026-027-061>063-070>075-250500-
WESTERN AND SOUTH CENTRAL KENTUCKY

CITY           SKY/WX    TMP DP  RH WIND       PRES   REMARKS
PADUCAH        CLEAR     63  53  70 S9        29.75R
HENDERSON      CLEAR     57  51  80 CALM      29.75S
OWENSBORO      CLEAR     62  54  74 SE6       29.76S
HOPKINSVILLE   CLEAR     57  55  91 SW6       29.77R
BOWLING GREEN  MOCLDY    60  57  89 CALM      29.75F
GLASGOW        CLEAR     56  56 100 CALM      29.77S
$$

KYZ024-025-028>034-038-045-046-053-250500-
NORTH CENTRAL KENTUCKY

CITY           SKY/WX    TMP DP  RH WIND       PRES   REMARKS
LOUISVILLE/SDF PTCLDY    63  52  67 E5        29.77F
LOUISVILLE/LOU PTCLDY    64  53  67 E6        29.78S
FORT KNOX      CLEAR     60  52  76 E3        29.76S
$$

KYZ035>037-039>044-047>052-055>060-089>105-250500-
NORTHEAST KENTUCKY

CITY           SKY/WX    TMP DP  RH WIND       PRES   REMARKS
LEXINGTON      CLEAR     59  51  75 E8        29.79F
COVINGTON      CLOUDY    61  53  75 E16       29.81F
FRANKFORT      CLOUDY    61  51  70 E6        29.78S
$$

KYZ054-064>069-076>088-106>120-250500-
SOUTHEAST KENTUCKY

CITY           SKY/WX    TMP DP  RH WIND       PRES   REMARKS
JACKSON        PTCLDY    55  52  89 CALM      29.79F
LONDON           N/A     57  51  80 N3        29.77F
SOMERSET       CLOUDY    59  52  77 CALM      29.78F
MIDDLESBORO    CLEAR     59  53  82 CALM      29.77S
MONTICELLO     PTCLDY    53  52  96 N10       29.78F
$$





USA.gov is the U.S. government's official web portal to all federal, state and local government web resources and services.